Voltar ao catálogo

DELTA 1 DEB

AtivoSSO
NORAD 27576·DEBRIS·🇺🇸 United States

Lançado Jun 12, 1975 de Vandenberg Space Force Base

Loading…

Próximas Passagens (próximas 24 horas)

TLE

AtualizadoSource: Space-Track

Época: Sep 14, 2026, 08:40 UTC

1 27576U 75052LD  26257.36161514 -.00000005  00000-0  41020-4 0  9992
2 27576  99.2804  99.2451 0117397 109.3785  64.6689 13.68151357772614

Acompanhe DELTA 1 DEB em tempo real com AllMySat

Download on the App Store